| time (UTC) | temp F | wind direction | speed MPH | gust MPH | rain 1hr in | rain 24hr in | rain mn in | humidity % | barometer mb |
| 20260505022118 | 50 | 321 | 0.0 | 2.0 | 0.01 | 0.05 | 0.05 | 78 | 1009.7 |
| 20260505022036 | 50 | 321 | 0.0 | 2.0 | 0.01 | 0.05 | 0.05 | 78 | 1009.7 |
| 20260505021038 | 51 | 342 | 0.0 | 2.0 | 0.00 | 0.04 | 0.04 | 73 | 1009.6 |
| 20260505020023 | 51 | 342 | 0.0 | 2.0 | 0.00 | 0.04 | 0.04 | 72 | 1009.7 |
| 20260505015025 | 51 | 342 | 0.0 | 3.0 | 0.00 | 0.04 | 0.04 | 73 | 1009.6 |
| 20260505014111 | 52 | 286 | 1.0 | 8.0 | 0.00 | 0.04 | 0.04 | 69 | 1009.5 |
| 20260505013114 | 52 | 327 | 4.0 | 10.0 | 0.00 | 0.04 | 0.04 | 69 | 1009.2 |
| 20260505013032 | 52 | 327 | 4.0 | 10.0 | 0.00 | 0.04 | 0.04 | 69 | 1009.2 |
| 20260505012030 | 53 | 314 | 4.0 | 14.0 | 0.00 | 0.04 | 0.04 | 67 | 1009.4 |
| 20260505011014 | 53 | 327 | 6.0 | 12.0 | 0.00 | 0.04 | 0.04 | 64 | 1009.2 |
| 20260505010015 | 55 | 360 | 4.0 | 14.0 | 0.00 | 0.04 | 0.04 | 62 | 1009.2 |
| 20260505005100 | 57 | 302 | 3.0 | 6.0 | 0.00 | 0.04 | 0.04 | 60 | 1009.1 |
| 20260505004102 | 57 | 339 | 1.0 | 6.0 | 0.00 | 0.04 | 0.04 | 60 | 1008.9 |
| 20260505003022 | 58 | 344 | 3.0 | 6.0 | 0.00 | 0.04 | 0.04 | 60 | 1008.9 |
| 20260505002045 | 58 | 322 | 0.0 | 3.0 | 0.00 | 0.04 | 0.04 | 61 | 1008.9 |
| 20260505001026 | 58 | 322 | 1.0 | 3.0 | 0.00 | 0.04 | 0.04 | 58 | 1008.6 |
| 20260505000132 | 57 | 322 | 0.0 | 2.0 | 0.00 | 0.04 | 0.04 | 63 | 1008.6 |
| 20260505000028 | 57 | 322 | 0.0 | 2.0 | 0.00 | 0.04 | 0.04 | 63 | 1008.6 |
| 20260504235030 | 57 | 322 | 1.0 | 2.0 | 0.02 | 0.04 | 0.04 | 65 | 1008.9 |
| 20260504234114 | 56 | 312 | 2.0 | 4.0 | 0.02 | 0.04 | 0.04 | 65 | 1008.8 |
| 20260504234011 | 56 | 312 | 2.0 | 4.0 | 0.02 | 0.04 | 0.04 | 65 | 1008.8 |
| 20260504232036 | 57 | 341 | 2.0 | 3.0 | 0.02 | 0.04 | 0.04 | 65 | 1008.5 |
| 20260504231039 | 55 | 295 | 0.0 | 5.0 | 0.02 | 0.04 | 0.04 | 68 | 1008.7 |
| 20260504225023 | 60 | 265 | 3.0 | 10.0 | 0.00 | 0.02 | 0.02 | 50 | 1008.7 |
| 20260504224129 | 59 | 217 | 9.0 | 12.0 | 0.00 | 0.02 | 0.02 | 50 | 1008.7 |
| 20260504224046 | 59 | 217 | 9.0 | 12.0 | 0.00 | 0.02 | 0.02 | 50 | 1008.7 |
| 20260504223050 | 60 | 244 | 7.0 | 9.0 | 0.00 | 0.02 | 0.02 | 51 | 1008.7 |
| 20260504222053 | 61 | 288 | 1.0 | 2.0 | 0.00 | 0.02 | 0.02 | 46 | 1008.3 |
| 20260504221055 | 62 | 345 | 2.0 | 4.0 | 0.00 | 0.02 | 0.02 | 47 | 1007.6 |
| 20260504220035 | 62 | 344 | 2.0 | 6.0 | 0.00 | 0.02 | 0.02 | 48 | 1007.3 |
| 20260504215122 | 61 | 329 | 2.0 | 6.0 | 0.00 | 0.02 | 0.02 | 44 | 1007.0 |
| 20260504215039 | 61 | 329 | 2.0 | 6.0 | 0.00 | 0.02 | 0.02 | 44 | 1007.0 |
| 20260504214125 | 62 | 5 | 2.0 | 6.0 | 0.02 | 0.02 | 0.02 | 47 | 1007.4 |
| 20260504214042 | 62 | 5 | 2.0 | 6.0 | 0.02 | 0.02 | 0.02 | 47 | 1007.4 |
| 20260504213022 | 63 | 340 | 3.0 | 12.0 | 0.02 | 0.02 | 0.02 | 49 | 1007.6 |
| 20260504212129 | 63 | 65 | 6.0 | 11.0 | 0.02 | 0.02 | 0.02 | 47 | 1007.7 |
| 20260504211050 | 61 | 344 | 4.0 | 10.0 | 0.02 | 0.02 | 0.02 | 51 | 1007.9 |
| 20260504210135 | 57 | 337 | 3.0 | 14.0 | 0.02 | 0.02 | 0.02 | 61 | 1008.2 |
| 20260504210031 | 57 | 337 | 3.0 | 14.0 | 0.02 | 0.02 | 0.02 | 61 | 1008.2 |
| 20260504205033 | 55 | 330 | 5.0 | 13.0 | 0.02 | 0.02 | 0.02 | 64 | 1008.2 |
| 20260504204013 | 63 | 17 | 5.0 | 10.0 | 0.00 | 0.00 | 0.00 | 42 | 1008.0 |
| 20260504203017 | 67 | 11 | 3.0 | 12.0 | 0.00 | 0.00 | 0.00 | 29 | 1008.0 |
| 20260504202018 | 68 | 192 | 8.0 | 13.0 | 0.00 | 0.00 | 0.00 | 27 | 1007.1 |
| 20260504201042 | 69 | 174 | 6.0 | 17.0 | 0.00 | 0.00 | 0.00 | 27 | 1007.2 |
| 20260504200044 | 71 | 322 | 1.0 | 9.0 | 0.00 | 0.00 | 0.00 | 25 | 1006.7 |
| 20260504195130 | 72 | 311 | 4.0 | 10.0 | 0.00 | 0.00 | 0.00 | 25 | 1006.7 |
| 20260504195027 | 72 | 311 | 4.0 | 10.0 | 0.00 | 0.00 | 0.00 | 25 | 1006.7 |
| 20260504194110 | 73 | 290 | 6.0 | 14.0 | 0.00 | 0.00 | 0.00 | 26 | 1006.6 |
| 20260504193029 | 72 | 15 | 5.0 | 12.0 | 0.00 | 0.00 | 0.00 | 24 | 1006.6 |
| 20260504192053 | 72 | 336 | 4.0 | 12.0 | 0.00 | 0.00 | 0.00 | 24 | 1006.5 |
| 20260504191116 | 72 | 254 | 3.0 | 8.0 | 0.00 | 0.00 | 0.00 | 22 | 1006.6 |
| 20260504190015 | 74 | 263 | 6.0 | 11.0 | 0.00 | 0.00 | 0.00 | 19 | 1006.7 |
| 20260504185040 | 76 | 263 | 4.0 | 10.0 | 0.00 | 0.00 | 0.00 | 20 | 1006.8 |
| 20260504184104 | 75 | 271 | 4.0 | 14.0 | 0.00 | 0.00 | 0.00 | 21 | 1006.9 |
| 20260504183107 | 74 | 283 | 6.0 | 13.0 | 0.00 | 0.00 | 0.00 | 23 | 1007.0 |
| 20260504183025 | 74 | 283 | 6.0 | 13.0 | 0.00 | 0.00 | 0.00 | 23 | 1007.0 |
| 20260504182109 | 73 | 315 | 4.0 | 15.0 | 0.00 | 0.00 | 0.00 | 27 | 1007.3 |
| 20260504181029 | 70 | 218 | 8.0 | 15.0 | 0.00 | 0.00 | 0.00 | 25 | 1007.5 |
| 20260504180014 | 70 | 310 | 8.0 | 15.0 | 0.00 | 0.00 | 0.00 | 27 | 1007.6 |
| 20260504174100 | 69 | 286 | 10.0 | 16.0 | 0.00 | 0.00 | 0.00 | 28 | 1008.0 |
| 20260504173103 | 68 | 300 | 5.0 | 15.0 | 0.00 | 0.00 | 0.00 | 31 | 1008.2 |
| 20260504172126 | 67 | 235 | 6.0 | 15.0 | 0.00 | 0.00 | 0.00 | 29 | 1008.5 |
| 20260504172043 | 67 | 235 | 6.0 | 15.0 | 0.00 | 0.00 | 0.00 | 29 | 1008.5 |
| 20260504171025 | 66 | 255 | 8.0 | 16.0 | 0.00 | 0.00 | 0.00 | 29 | 1008.5 |
| 20260504170105 | 66 | 263 | 6.0 | 14.0 | 0.00 | 0.00 | 0.00 | 30 | 1008.6 |
| 20260504151111 | 63 | 250 | 2.0 | 9.0 | 0.00 | 0.00 | 0.00 | 30 | 1008.7 |
| 20260504151029 | 63 | 250 | 2.0 | 9.0 | 0.00 | 0.00 | 0.00 | 30 | 1008.7 |
| 20260504141101 | 62 | 216 | 12.0 | 20.0 | 0.00 | 0.00 | 0.00 | 28 | 1008.5 |
| 20260504141019 | 62 | 216 | 12.0 | 20.0 | 0.00 | 0.00 | 0.00 | 28 | 1008.5 |
| 20260504081109 | 50 | 98 | 0.0 | 3.0 | 0.00 | 0.00 | 0.00 | 40 | 1009.6 |
| 20260504080107 | 49 | 109 | 1.0 | 2.0 | 0.00 | 0.00 | 0.00 | 41 | 1009.8 |
| 20260504070127 | 51 | 337 | 0.0 | 0.0 | 0.00 | 0.00 | 0.00 | 41 | 1010.4 |
| 20260504050134 | 59 | 333 | 1.0 | 7.0 | 0.00 | 0.00 | 0.00 | 31 | 1010.4 |
| 20260504045116 | 58 | 323 | 3.0 | 6.0 | 0.00 | 0.00 | 0.00 | 31 | 1010.4 |
| 20260504044120 | 59 | 355 | 1.0 | 6.0 | 0.00 | 0.00 | 0.00 | 32 | 1010.2 |
| 20260504044017 | 59 | 355 | 1.0 | 6.0 | 0.00 | 0.00 | 0.00 | 32 | 1010.2 |
| 20260504043019 | 59 | 219 | 4.0 | 7.0 | 0.00 | 0.00 | 0.00 | 31 | 1010.1 |
| 20260504042104 | 60 | 202 | 4.0 | 8.0 | 0.00 | 0.00 | 0.00 | 31 | 1010.1 |
| 20260504042022 | 60 | 202 | 4.0 | 8.0 | 0.00 | 0.00 | 0.00 | 31 | 1010.1 |
| 20260504041046 | 60 | 221 | 5.0 | 7.0 | 0.00 | 0.00 | 0.00 | 32 | 1010.3 |
| 20260504040048 | 60 | 213 | 5.0 | 7.0 | 0.00 | 0.00 | 0.00 | 31 | 1010.3 |
| 20260504035112 | 61 | 218 | 5.0 | 7.0 | 0.00 | 0.00 | 0.00 | 31 | 1010.4 |
| 20260504034032 | 62 | 226 | 6.0 | 9.0 | 0.00 | 0.00 | 0.00 | 29 | 1010.4 |
| 20260504033034 | 62 | 217 | 5.0 | 8.0 | 0.00 | 0.00 | 0.00 | 29 | 1010.4 |
| 20260504032036 | 63 | 240 | 4.0 | 8.0 | 0.00 | 0.00 | 0.00 | 28 | 1010.4 |
| 20260504031038 | 64 | 215 | 7.0 | 12.0 | 0.00 | 0.00 | 0.00 | 27 | 1010.4 |
| 20260504030123 | 64 | 225 | 9.0 | 11.0 | 0.00 | 0.00 | 0.00 | 26 | 1010.3 |
| 20260504030040 | 64 | 225 | 9.0 | 11.0 | 0.00 | 0.00 | 0.00 | 26 | 1010.3 |
| 20260504025104 | 63 | 223 | 5.0 | 10.0 | 0.00 | 0.00 | 0.00 | 27 | 1010.2 |
| 20260504025021 | 63 | 223 | 5.0 | 10.0 | 0.00 | 0.00 | 0.00 | 27 | 1010.2 |
| 20260504024106 | 63 | 232 | 5.0 | 8.0 | 0.00 | 0.00 | 0.00 | 28 | 1010.2 |
| 20260504023109 | 64 | 233 | 4.0 | 7.0 | 0.00 | 0.00 | 0.00 | 26 | 1010.1 |